Weather History for KRHI - September, 2012

Change the Weather History Date:

Monday, September 3, 2012

  Actual Average Record
Temperature  
Mean Temperature 72 °F 61 °F  
Max Temperature 85 °F 72 °F 88 °F (1960)
Min Temperature 59 °F 49 °F 31 °F (1974)
Degree Days  
Heating Degree Days 0 6  
Month to date heating degree days 3 16  
Since 1 July heating degree days 85 143  
Cooling Degree Days 7 1  
Month to date cooling degree days 8 3  
Year to date cooling degree days 359 244  
Growing Degree Days 23 (Base 50)    
Moisture  
Dew Point 63 °F    
Average Humidity 76    
Maximum Humidity 100    
Minimum Humidity 51    
Precipitation  
Precipitation 0.08 in 0.14 in 2.63 in (1934)
Month to date precipitation 0.08 0.40  
Year to date precipitation 22.79 21.28  
Snow  
Snow 0.00 in - 0.00 in ()
Month to date snowfall 0.0  
Since 1 July snowfall 0.0  
Since 1 September snowfall 0.0  
Snow Depth 0.00 in    
Sea Level Pressure  
Sea Level Pressure 29.93 in    
Wind  
Wind Speed 5 mph (SW)    
Max Wind Speed 14 mph    
Max Gust Speed 18 mph    
Visibility 8 miles    
Events Fog    
T = Trace of Precipitation, MM = Missing Value Source: NWS Daily Summary

Daily Weather History Graph

Daily Weather History Graph

Search for Another Location

Airport or City:

Trip Planner

Search our weather history database for the weather conditions in past years. The results will help you decide how hot, cold, wet, or windy it might be!

Date:

Astronomy

Sep. 03, 2012 Rise Set
Actual Time 6:22 AM CDT 7:31 PM CDT
Civil Twilight 5:51 AM CDT 8:01 PM CDT
Nautical Twilight 5:15 AM CDT 8:37 PM CDT
Astronomical Twilight 4:36 AM CDT 9:16 PM CDT
Moon 8:35 PM CDT (9/3) 9:43 AM CDT (9/3)
Length of Visible Light 14h 09m
Length of Day
13h 08m
Waning Gibbous, 90% of the Moon is Illuminated
Sep 3
Waning Gibbous
Sep 8
Last Quarter
Sep 15
New
Sep 22
First Quarter
Sep 29
Full

Hourly Weather History & Observations

Time (CDT) Temp. Heat Index Dew Point Humidity Pressure Visibility Wind Dir Wind Speed Gust Speed Precip Events Conditions
12:53 AM 62.1 °F - 53.1 °F 72% 29.97 in 10.0 mi ESE 3.5 mph - N/A   Clear
1:53 AM 62.1 °F - 54.0 °F 75% 29.96 in 10.0 mi Calm Calm - N/A   Clear
2:53 AM 63.0 °F - 55.0 °F 75% 29.96 in 10.0 mi SE 4.6 mph - N/A   Clear
3:53 AM 64.0 °F - 55.0 °F 73% 29.96 in 10.0 mi South 3.5 mph - N/A   Clear
4:53 AM 64.0 °F - 55.9 °F 75% 29.95 in 10.0 mi South 3.5 mph - N/A   Clear
5:53 AM 64.0 °F - 55.9 °F 75% 29.95 in 10.0 mi SSW 3.5 mph - N/A   Partly Cloudy
6:53 AM 66.0 °F - 57.0 °F 73% 29.95 in 10.0 mi SSW 8.1 mph - N/A   Mostly Cloudy
7:53 AM 69.1 °F - 60.1 °F 73% 29.93 in 10.0 mi SSW 8.1 mph - N/A   Clear
8:53 AM 72.0 °F - 62.1 °F 71% 29.94 in 10.0 mi SW 10.4 mph - N/A   Clear
9:53 AM 75.9 °F - 64.9 °F 69% 29.94 in 10.0 mi SW 10.4 mph - N/A   Partly Cloudy
10:53 AM 78.1 °F - 66.0 °F 66% 29.94 in 10.0 mi SW 10.4 mph - 0.00 in   Scattered Clouds
11:53 AM 80.1 °F 82.1 °F 66.0 °F 62% 29.93 in 10.0 mi WSW 12.7 mph 17.3 mph N/A   Mostly Cloudy
12:53 PM 81.0 °F 83.3 °F 66.9 °F 62% 29.92 in 10.0 mi West 10.4 mph - N/A   Mostly Cloudy
1:53 PM 81.0 °F 83.0 °F 66.0 °F 60% 29.90 in 10.0 mi West 10.4 mph - N/A   Overcast
2:53 PM 79.0 °F - 71.1 °F 77% 29.90 in 10.0 mi West 4.6 mph - 0.08 in   Partly Cloudy
4:53 PM 84.9 °F 86.6 °F 64.9 °F 51% 29.87 in 10.0 mi WNW 6.9 mph - N/A   Scattered Clouds
5:53 PM 82.0 °F 83.8 °F 64.9 °F 56% 29.88 in 10.0 mi Calm Calm - N/A   Scattered Clouds
6:53 PM 77.0 °F - 68.0 °F 74% 29.88 in 10.0 mi Calm Calm - N/A   Scattered Clouds
7:53 PM 72.0 °F - 68.0 °F 87% 29.89 in 10.0 mi Calm Calm - N/A   Scattered Clouds
8:53 PM 71.1 °F - 66.9 °F 87% 29.92 in 10.0 mi North 4.6 mph - N/A   Partly Cloudy
9:53 PM 70.0 °F - 66.9 °F 90% 29.92 in 10.0 mi North 4.6 mph - N/A   Clear
10:53 PM 66.0 °F - 64.9 °F 96% 29.92 in 4.0 mi Calm Calm - N/A   Clear
11:27 PM 64.4 °F - 64.4 °F 100% 29.94 in 1.5 mi Calm Calm - N/A   Clear
11:30 PM 62.6 °F - 62.6 °F 100% 29.94 in 0.8 mi Calm Calm - N/A   Mist
11:40 PM 62.6 °F - 62.6 °F 100% 29.94 in 0.2 mi Calm Calm - N/A Fog Fog
11:49 PM 62.6 °F - 62.6 °F 100% 29.94 in 0.2 mi Calm Calm - N/A Fog Fog
11:53 PM 62.1 °F - 62.1 °F 100% 29.92 in 0.2 mi Calm Calm - N/A Fog Fog